COSMOS 1603 DEB, 43312

Orbit data source: Space-Track

COSMOS 1603 DEB, 43312 is space debris in LEO originally from a launch on Fri, 28 Sep 1984 UTC launched from the Tyuratam Missile And Space Complex (TTMTR). Debris objects in space refer to the collection of defunct objects orbiting the Earth. Examples of debris include non-operational satellites, rocket bodies, and fragments generated from explosions, collisions, or faulty payload assembly.

Loading next visibility...
COSMOS 1603 DEB details
Identifier
43312, 1984-106AE
Orbit
LEO
Last TLE update2 days ago
Origin
Flag of CISRVSN RF (CIS)
ManufacturerUnknown
MissionSpacecraft
Bus & MotorUnknown
MassUnknown
Launch date (UTC)
1984-09-28 (40 years ago)
Launch vehicleUnknown
Launch site
Tyuratam Missile And Space Complex (TTMTR)
Object type
Payload
Rocket body
Debris
Shape & HBRUnknown
Radar Cross SectionSmall (<0.1 m²)

Expand to show TLE details & history

TLE from 2 days ago
0 COSMOS 1603 DEB
1 43312U 84106AE  24359.48206998  .00003561  00000-0  16953-2 0  9992
2 43312  71.0263  81.3296 0020678 325.4496  34.5284 14.19893447458013
Epoch: 2024-12-24T11:34Z
Definitive object data (Epoch: 2024-12-24T11:34:10.846Z)
Latitude-0.00002°
Longitude174.29486°
Altitude815.857 km
Speed7.452 km/s
True Right ascension05h 25m 19s
True Declination0° 00' 00"
Sunlit
Object was in full shadow at TLE epoch
Visualization TLE readout
Latitude6.37819°
Longitude-12.88088°
Altitude840.174 km
Speed7.427 km/s
Apparent Right ascension14h 06m 33s
Apparent Declination-35° 31' 51"
Sunlit
Object is in daylight
Visualization observer readout
Local Sidereal Time19:33:31
Azimuth237.114° WSW
Elevation-16.454°
Doppler factor1
Orbital elements
Apogee altitude838.522 km
Perigee altitude808.739 km
Semi-major axis7,201.768 km
Eccentricity0.0020678
Inclination71.0263°
RAAN81.3296°
Arg. of periapsis325.4496°
True anomaly34.66299°
Mean anomaly34.5284°
Eccentric anomaly34.59567°
Mean motion3.55128 °/min
BSTAR0.0016953
Orbital period101.37 mins
Loading maneuver chart data...

COSMOS 1603 DEB Visibility forecast

Observer location: undefined°, undefined

Span
Click to sort rows by Start time (UTC) header in descending order
Start Az.
Max El. time (UTC)
Max El. Az.
Max El.
End time (UTC)
End Az.
8 mins2024-12-27 05:37:44.407Z152.106° SSE2024-12-27 05:41:44.407Z98.78° ESE23.474°2024-12-27 05:45:44.407Z49.734° ENE
8 mins2024-12-27 07:21:44.407Z240.396° WSW2024-12-27 07:24:44.407Z292.759° NW33.325°2024-12-27 07:29:44.407Z7.705° NNE
9 mins2024-12-27 16:13:44.407Z341.241° N2024-12-27 16:17:44.407Z63.043° ENE44.431°2024-12-27 16:22:44.407Z152.978° SSE
|